Rickenbacker, OH

7:31 PM EDT on April 27, 2017 (GMT -0400)
Rickenbacker International

Weather History for KLCK - January, 2013

Change the Weather History Date:

Saturday, January 12, 2013

  Actual Average Record
Temperature  
Mean Temperature 56 °F -  
Max Temperature 66 °F 35 °F 66 °F (2013)
Min Temperature 45 °F 21 °F 1 °F (1997)
Degree Days  
Heating Degree Days 10    
Growing Degree Days 6 (Base 50)    
Moisture  
Dew Point 51 °F    
Average Humidity 83    
Maximum Humidity 90    
Minimum Humidity 69    
Precipitation  
Precipitation 0.00 in - - ()
Sea Level Pressure  
Sea Level Pressure 29.97 in    
Wind  
Wind Speed 8 mph (South)    
Max Wind Speed 14 mph    
Max Gust Speed 17 mph    
Visibility 9 miles    
Events Rain    
Averages and records for this station are not official NWS values.
T = Trace of Precipitation, MM = Missing Value Source: NWS Daily Summary

Daily Weather History Graph

Daily Weather History Graph

Search for Another Location

Airport or City:

Trip Planner

Search our weather history database for the weather conditions in past years. The results will help you decide how hot, cold, wet, or windy it might be!

Date:

Astronomy

Jan. 12, 2013 Rise Set
Actual Time 7:52 AM EST 5:28 PM EST
Civil Twilight 7:22 AM EST 5:58 PM EST
Nautical Twilight 6:48 AM EST 6:31 PM EST
Astronomical Twilight 6:16 AM EST 7:04 PM EST
Moon 8:10 AM EST (1/12) 6:55 PM EST (1/12)
Length of Visible Light 10h 36m
Length of Day
9h 36m
New Moon, 1% of the Moon is Illuminated
Jan 12
New Moon
Jan 18
First Quarter
Jan 26
Full
Feb 3
Last Quarter
Feb 10
New

Hourly Weather History & Observations

Time (EST) Temp. Windchill Dew Point Humidity Pressure Visibility Wind Dir Wind Speed Gust Speed Precip Events Conditions
12:15 AM 49.8 °F - 45.3 °F 84% 29.95 in 10.0 mi South 4.6 mph - N/A   Clear
12:35 AM 49.5 °F - 45.5 °F 86% 29.95 in 10.0 mi South 5.8 mph - N/A   Clear
12:55 AM 49.6 °F - 45.5 °F 86% 29.95 in 10.0 mi South 6.9 mph - N/A   Clear
1:15 AM 48.4 °F - 44.6 °F 87% 29.95 in 10.0 mi South 5.8 mph - N/A   Clear
1:35 AM 46.9 °F - 43.5 °F 88% 29.96 in 10.0 mi South 5.8 mph - N/A   Clear
1:55 AM 45.5 °F 41.8 °F 42.3 °F 88% 29.96 in 10.0 mi South 6.9 mph - N/A   Clear
2:15 AM 45.1 °F 40.3 °F 41.9 °F 88% 29.96 in 10.0 mi South 9.2 mph - N/A   Clear
2:35 AM 45.7 °F 41.5 °F 42.3 °F 88% 29.97 in 10.0 mi South 8.1 mph - N/A   Clear
2:55 AM 45.9 °F 41.7 °F 42.4 °F 88% 29.97 in 10.0 mi South 8.1 mph - N/A   Clear
3:15 AM 45.7 °F 42.0 °F 42.3 °F 88% 29.97 in 10.0 mi South 6.9 mph - N/A   Clear
3:35 AM 45.0 °F 40.6 °F 41.5 °F 88% 29.97 in 7.0 mi South 8.1 mph - N/A   Clear
3:55 AM 45.9 °F 41.2 °F 42.8 °F 89% 29.98 in 10.0 mi South 9.2 mph - N/A   Mostly Cloudy
4:15 AM 47.3 °F - 43.9 °F 88% 29.98 in 10.0 mi SSW 6.9 mph - N/A   Overcast
4:35 AM 47.3 °F - 43.9 °F 88% 29.98 in 7.0 mi South 6.9 mph - N/A   Overcast
4:55 AM 48.4 °F - 45.0 °F 88% 29.98 in 10.0 mi South 8.1 mph - N/A   Overcast
5:15 AM 50.2 °F - 46.6 °F 87% 29.98 in 10.0 mi South 6.9 mph - N/A   Overcast
5:35 AM 48.9 °F - 45.5 °F 88% 29.97 in 5.0 mi South 6.9 mph - N/A   Mostly Cloudy
5:55 AM 47.5 °F - 44.4 °F 89% 29.98 in 4.0 mi South 9.2 mph - N/A   Mostly Cloudy
6:15 AM 48.6 °F - 45.7 °F 90% 29.99 in 7.0 mi South 9.2 mph - N/A   Overcast
6:35 AM 49.6 °F - 46.8 °F 90% 29.99 in 7.0 mi South 10.4 mph - N/A   Overcast
6:55 AM 51.1 °F - 47.8 °F 89% 30.00 in 10.0 mi South 10.4 mph - N/A   Overcast
7:15 AM 51.6 °F - 47.8 °F 87% 30.01 in 10.0 mi South 8.1 mph - N/A   Overcast
7:35 AM 50.9 °F - 47.1 °F 87% 30.01 in 10.0 mi South 8.1 mph - N/A   Overcast
7:55 AM 50.2 °F - 46.4 °F 87% 30.02 in 7.0 mi South 8.1 mph - N/A   Scattered Clouds
8:15 AM 48.9 °F - 45.3 °F 87% 30.03 in 7.0 mi South 6.9 mph - N/A   Scattered Clouds
8:35 AM 49.8 °F - 46.4 °F 88% 30.04 in 10.0 mi South 8.1 mph - N/A   Mostly Cloudy
8:55 AM 51.1 °F - 47.1 °F 86% 30.04 in 10.0 mi South 6.9 mph - N/A   Scattered Clouds
9:15 AM 51.1 °F - 47.3 °F 87% 30.05 in 7.0 mi SSE 6.9 mph - N/A   Scattered Clouds
9:35 AM 52.5 °F - 48.6 °F 86% 30.04 in 10.0 mi South 8.1 mph - N/A   Mostly Cloudy
9:55 AM 55.4 °F - 50.5 °F 84% 30.05 in 10.0 mi South 11.5 mph - N/A   Overcast
10:15 AM 57.9 °F - 52.3 °F 82% 30.05 in 10.0 mi SSW 9.2 mph - N/A   Mostly Cloudy
10:35 AM 59.7 °F - 53.6 °F 80% 30.05 in 10.0 mi SSW 11.5 mph 17.3 mph N/A   Mostly Cloudy
10:55 AM 61.0 °F - 54.7 °F 80% 30.03 in 10.0 mi South 11.5 mph - N/A   Scattered Clouds
11:15 AM 61.5 °F - 54.9 °F 79% 30.03 in 10.0 mi SSW 8.1 mph - N/A   Scattered Clouds
11:35 AM 62.2 °F - 55.2 °F 78% 30.02 in 10.0 mi SSW 8.1 mph - N/A   Scattered Clouds
11:55 AM 63.5 °F - 55.8 °F 76% 30.01 in 10.0 mi SSW 10.4 mph - N/A   Mostly Cloudy
12:15 PM 64.4 °F - 55.8 °F 73% 30.00 in 10.0 mi SSW 10.4 mph - N/A   Mostly Cloudy
12:35 PM 65.7 °F - 55.9 °F 71% 30.00 in 10.0 mi SW 9.2 mph - N/A   Mostly Cloudy
12:55 PM 66.2 °F - 55.9 °F 69% 30.00 in 10.0 mi SSW 12.7 mph 16.1 mph N/A   Mostly Cloudy
1:15 PM 66.2 °F - 56.5 °F 71% 30.01 in 10.0 mi WSW 11.5 mph - N/A   Overcast
1:55 PM 65.8 °F - 55.2 °F 69% 30.01 in 10.0 mi SW 6.9 mph - N/A   Overcast
2:15 PM 65.8 °F - 55.4 °F 69% 30.00 in 10.0 mi SSW 8.1 mph - N/A   Overcast
2:35 PM 65.8 °F - 55.8 °F 70% 30.00 in 10.0 mi SSW 6.9 mph - N/A   Scattered Clouds
2:55 PM 65.8 °F - 56.3 °F 71% 30.01 in 10.0 mi SSW 8.1 mph - N/A   Clear
3:15 PM 66.0 °F - 56.3 °F 71% 30.01 in 10.0 mi South 8.1 mph - N/A   Mostly Cloudy
3:35 PM 66.2 °F - 56.5 °F 71% 30.00 in 10.0 mi South 6.9 mph - N/A   Mostly Cloudy
3:55 PM 65.3 °F - 55.9 °F 72% 30.00 in 10.0 mi South 8.1 mph - N/A   Overcast
4:15 PM 64.4 °F - 55.6 °F 73% 29.99 in 10.0 mi South 9.2 mph - N/A   Overcast
4:35 PM 62.6 °F - 55.8 °F 78% 29.99 in 7.0 mi South 4.6 mph - N/A   Overcast
4:55 PM 62.2 °F - 55.8 °F 79% 29.99 in 7.0 mi SSE 6.9 mph - N/A Rain Rain
5:15 PM 61.5 °F - 55.9 °F 82% 29.98 in 5.0 mi SSE 4.6 mph - N/A   Light Drizzle
5:35 PM 59.7 °F - 55.2 °F 85% 29.98 in 5.0 mi SSE 5.8 mph - N/A   Light Drizzle
5:55 PM 57.6 °F - 53.8 °F 87% 29.97 in 2.5 mi SE 6.9 mph - N/A   Drizzle
6:15 PM 56.7 °F - 53.1 °F 88% 29.95 in 3.0 mi SE 13.8 mph - N/A   Light Drizzle
6:35 PM 57.2 °F - 53.8 °F 88% 29.95 in 5.0 mi SE 10.4 mph - N/A   Mostly Cloudy
7:15 PM 57.4 °F - 53.6 °F 87% 29.94 in 7.0 mi SE 10.4 mph - N/A Rain Light Rain
7:35 PM 57.4 °F - 53.8 °F 88% 29.94 in 4.0 mi SSE 9.2 mph - N/A   Overcast
7:55 PM 57.4 °F - 54.1 °F 89% 29.93 in 5.0 mi SE 6.9 mph - N/A   Overcast
8:15 PM 57.4 °F - 54.1 °F 89% 29.92 in 7.0 mi SE 8.1 mph - N/A   Overcast
8:55 PM 58.1 °F - 54.5 °F 88% 29.91 in 10.0 mi SE 6.9 mph - N/A Rain Rain
9:15 PM 58.1 °F - 54.5 °F 88% 29.88 in 10.0 mi SE 9.2 mph - N/A Rain Light Rain
9:35 PM 58.1 °F - 54.5 °F 88% 29.88 in 10.0 mi SE 9.2 mph - N/A   Overcast
9:55 PM 58.1 °F - 54.1 °F 87% 29.87 in 10.0 mi SE 11.5 mph - N/A   Overcast
10:15 PM 57.9 °F - 54.0 °F 87% 29.88 in 10.0 mi SSE 8.1 mph - N/A   Mostly Cloudy
10:35 PM 57.6 °F - 54.0 °F 88% 29.87 in 10.0 mi SSE 6.9 mph - N/A   Overcast
10:55 PM 57.9 °F - 54.1 °F 87% 29.88 in 10.0 mi South 9.2 mph - N/A   Overcast
11:15 PM 58.3 °F - 54.3 °F 87% 29.86 in 10.0 mi SSE 10.4 mph - N/A   Overcast
11:35 PM 58.8 °F - 54.5 °F 86% 29.86 in 10.0 mi South 12.7 mph - N/A   Overcast
11:55 PM 59.2 °F - 54.7 °F 85% 29.85 in 10.0 mi SSE 11.5 mph 17.3 mph N/A   Mostly Cloudy